Location: Kearney
(40.6990°N, 99.0810°W)
Time: 20:02:00
(UTC-06:00)

ALOS - Pass Details

Date: 18 December 2017
Orbit: 684 x 686 km, 97.8° (Epoch: 23 January)

Event Time Altitude Azimuth Distance (km) Brightness Sun altitude
Rises 18:25:46 0° 149° (SSE) 3,039 5.5 -13.7°
Reaches altitude 10° 18:28:04 10° 143° (SE) 2,127 4.6 -14.1°
Maximum altitude 18:32:29 44° 72° (ENE) 944 2.5 -14.9°
Drops below altitude 10° 18:36:56 10° 1° (N) 2,141 4.6 -15.7°
Sets 18:39:15 0° 355° (N) 3,060 5.5 -16.1°
